Date String (YYYY-MM-DD hh:mm:ss) UTC,Instrument flags,absolute air pressure of the measurement (hPa),sample flow rate (lpm),inlet stack bypass flow (lpm),air temperature of the measurement (°C),ambient temperature measured by the external sensor (°C),aerosol sample conditioner tube jacket temperature (°C),OPC LED temperature (°C),internal box temperature (°C),relative humidity of the measurement (%),span deviation,mass concentration of particles derived from Lorenz-Mie calculation of OPC scattering (μg/m³),mass concentration of particles derived from Lorenz-Mie calculation of OPC scattering (μg/m³),mass concentration of particles derived from Lorenz-Mie calculation of OPC scattering (μg/m³)
DateTimeUTC,F1_M11,P_M11,Q1_M11,Q2_M11,T1_M11,T2_M11,T3_M11,T4_M11,T5_M11,U1_M11,ZSPAN_M11,X0_M11,X2_M11,X1_M11
2023-10-29 23:00:00,SystemResetWarning,0838.7,5.01,000.00,019.9,019.0,000.0,028.4,021.3,12.5,0000.0,0009.39,0007.56,0007.40
2023-10-29 23:01:00,SystemResetWarning,0838.7,5.00,000.00,020.0,020.0,000.0,028.4,021.8,12.5,0000.0,0009.42,0007.62,0007.46
2023-10-29 23:02:00,SystemResetWarning,0838.8,5.00,000.00,020.2,020.8,000.0,028.4,022.2,12.6,0000.0,0009.40,0007.66,0007.51
2023-10-29 23:03:00,SystemResetWarning,0838.7,4.99,000.00,020.3,020.6,000.0,028.5,022.0,12.5,0000.0,0009.37,0007.67,0007.54
2023-10-29 23:04:00,SystemResetWarning,0838.7,4.99,000.00,020.3,020.4,000.0,028.5,021.8,12.5,0000.0,0009.44,0007.72,0007.58
2023-10-29 23:05:00,SystemResetWarning,0838.7,4.99,000.00,020.2,020.1,000.0,028.5,021.7,12.4,0000.0,0009.51,0007.80,0007.65
2023-10-29 23:06:00,SystemResetWarning,0838.7,5.00,000.00,020.2,019.8,000.0,028.6,021.6,12.4,0000.0,0009.59,0007.87,0007.73
2023-10-29 23:07:00,SystemResetWarning,0838.7,5.00,000.00,020.2,019.6,000.0,028.6,021.5,12.5,-000.2,0009.65,0007.93,0007.78
2023-10-29 23:08:00,SystemResetWarning,0838.7,5.00,000.00,020.2,019.4,000.0,028.6,021.4,12.5,0000.2,0009.73,0008.01,0007.85
2023-10-29 23:09:00,SystemResetWarning,0838.7,5.00,000.00,020.1,019.3,000.0,028.6,021.4,12.6,0000.5,0009.77,0008.09,0007.94
2023-10-29 23:10:00,SystemResetWarning,0838.6,5.00,000.00,020.1,019.2,000.0,028.6,021.3,12.6,0001.0,0009.98,0008.13,0007.98
2023-10-29 23:11:00,SystemResetWarning,0838.7,5.00,000.00,020.1,019.1,000.0,028.6,021.3,12.5,0001.1,0010.07,0008.14,0008.00
2023-10-29 23:12:00,SystemResetWarning,0838.7,5.01,000.00,020.0,019.0,000.0,028.5,021.2,12.6,0001.5,0010.08,0008.18,0008.05
2023-10-29 23:13:00,SystemResetWarning,0838.6,5.01,000.00,020.0,018.9,000.0,028.5,021.2,12.7,0002.0,0010.07,0008.21,0008.10
2023-10-29 23:14:00,SystemResetWarning,0838.6,5.01,000.00,020.0,018.9,000.0,028.5,021.1,12.6,0002.2,0010.09,0008.25,0008.14
2023-10-29 23:15:00,SystemResetWarning,0838.6,5.00,000.00,019.9,018.8,000.0,028.5,021.1,12.7,0002.1,0010.19,0008.33,0008.19
2023-10-29 23:16:00,SystemResetWarning,0838.6,4.99,000.00,019.9,018.8,000.0,028.5,021.1,12.5,0001.7,0010.23,0008.37,0008.23
2023-10-29 23:17:00,SystemResetWarning,0838.6,5.00,000.00,019.9,018.7,000.0,028.5,021.0,12.4,0001.2,0010.78,0008.43,0008.25
2023-10-29 23:18:00,SystemResetWarning,0838.6,5.00,000.00,019.8,018.6,000.0,028.4,021.0,12.5,0001.1,0010.92,0008.47,0008.28
2023-10-29 23:19:00,SystemResetWarning,0838.7,5.00,000.00,019.8,018.6,000.0,028.4,021.0,12.4,0000.9,0010.99,0008.50,0008.29
2023-10-29 23:20:00,SystemResetWarning,0838.7,5.01,000.00,019.9,019.2,000.0,028.3,021.4,12.4,0000.0,0011.11,0008.54,0008.32
2023-10-29 23:21:00,SystemResetWarning,0838.8,5.01,000.00,020.0,020.3,000.0,028.3,021.9,12.2,-000.6,0011.01,0008.57,0008.35
2023-10-29 23:22:00,SystemResetWarning,0838.8,4.99,000.00,020.2,020.8,000.0,028.4,022.1,12.1,-000.5,0010.90,0008.60,0008.37
2023-10-29 23:23:00,SystemResetWarning,0838.7,5.00,000.00,020.2,020.6,000.0,028.4,021.9,12.0,-000.2,0011.15,0008.66,0008.39
2023-10-29 23:24:00,SystemResetWarning,0838.7,5.01,000.00,020.2,020.3,000.0,028.5,021.7,12.0,-000.2,0011.21,0008.69,0008.41
2023-10-29 23:25:00,SystemResetWarning,0838.7,5.01,000.00,020.2,020.0,000.0,028.5,021.6,12.0,0000.2,0011.27,0008.71,0008.43
2023-10-29 23:26:00,SystemResetWarning,0838.7,5.00,000.00,020.1,019.7,000.0,028.5,021.4,12.0,0000.2,0011.21,0008.69,0008.43
2023-10-29 23:27:00,SystemResetWarning,0838.7,4.99,000.00,020.1,019.4,000.0,028.5,021.3,12.2,0000.8,0011.23,0008.70,0008.43
2023-10-29 23:28:00,SystemResetWarning,0838.7,5.01,000.00,020.1,019.3,000.0,028.5,021.3,12.3,0001.1,0010.86,0008.67,0008.44
2023-10-29 23:29:00,SystemResetWarning,0838.7,5.00,000.00,020.0,019.1,000.0,028.5,021.2,12.2,0001.7,0010.71,0008.69,0008.46
2023-10-29 23:30:00,SystemResetWarning,0838.7,5.00,000.00,020.0,019.0,000.0,028.5,021.1,12.1,0002.0,0010.70,0008.70,0008.48
2023-10-29 23:31:00,SystemResetWarning,0838.8,5.00,000.00,019.9,018.9,000.0,028.5,021.1,12.2,0000.2,0010.60,0008.68,0008.48
2023-10-29 23:32:00,SystemResetWarning,0838.8,5.00,000.00,019.9,018.8,000.0,028.5,021.0,12.2,0000.0,0010.58,0008.67,0008.48
2023-10-29 23:33:00,SystemResetWarning,0838.8,5.00,000.00,019.9,018.7,000.0,028.4,021.0,12.3,0000.0,0010.55,0008.67,0008.48
2023-10-29 23:34:00,SystemResetWarning,0838.8,5.00,000.00,019.8,018.7,000.0,028.4,021.0,12.3,0000.0,0010.37,0008.66,0008.49
2023-10-29 23:35:00,SystemResetWarning,0838.8,5.01,000.00,019.8,018.6,000.0,028.4,020.9,12.3,0000.0,0010.34,0008.65,0008.49
2023-10-29 23:36:00,SystemResetWarning,0838.8,5.00,000.00,019.8,018.5,000.0,028.4,020.9,12.3,0000.0,0010.40,0008.70,0008.51
2023-10-29 23:37:00,SystemResetWarning,0838.8,5.00,000.00,019.7,018.6,000.0,028.3,021.0,12.3,0000.0,0010.45,0008.73,0008.52
2023-10-29 23:38:00,SystemResetWarning,0838.8,5.01,000.00,019.9,019.6,000.0,028.3,021.5,12.3,0000.0,0010.40,0008.72,0008.53
2023-10-29 23:39:00,SystemResetWarning,0838.8,4.99,000.00,020.0,020.7,000.0,028.3,022.0,12.1,0000.0,0010.35,0008.72,0008.54
2023-10-29 23:40:00,SystemResetWarning,0838.8,4.99,000.00,020.2,020.7,000.0,028.3,022.0,12.0,0000.8,0010.36,0008.74,0008.55
2023-10-29 23:41:00,SystemResetWarning,0838.8,4.99,000.00,020.2,020.4,000.0,028.4,021.8,12.0,0001.6,0010.55,0008.76,0008.56
2023-10-29 23:42:00,SystemResetWarning,0838.8,5.00,000.00,020.1,020.1,000.0,028.4,021.6,12.0,0002.5,0010.90,0008.81,0008.57
2023-10-29 23:43:00,SystemResetWarning,0838.8,5.00,000.00,020.1,019.8,000.0,028.4,021.4,12.0,0002.9,0010.96,0008.84,0008.59
2023-10-29 23:44:00,SystemResetWarning,0838.8,5.00,000.00,020.1,019.6,000.0,028.5,021.4,12.0,0002.9,0011.06,0008.85,0008.60
2023-10-29 23:45:00,SystemResetWarning,0838.8,5.00,000.00,020.0,019.4,000.0,028.5,021.3,12.0,0002.8,0011.13,0008.87,0008.61
2023-10-29 23:46:00,SystemResetWarning,0838.8,5.01,000.00,020.0,019.2,000.0,028.4,021.2,12.0,0002.8,0011.23,0008.93,0008.65
2023-10-29 23:47:00,SystemResetWarning,0838.8,5.00,000.00,020.0,019.0,000.0,028.4,021.2,12.0,0002.7,0011.21,0008.94,0008.67
2023-10-29 23:48:00,SystemResetWarning,0838.8,4.98,000.00,019.9,018.9,000.0,028.4,021.1,12.0,0002.5,0011.21,0008.95,0008.67
2023-10-29 23:49:00,SystemResetWarning,0838.8,5.00,000.00,019.9,018.8,000.0,028.4,021.1,12.1,0003.2,0011.25,0008.97,0008.69
2023-10-29 23:50:00,SystemResetWarning,0838.8,5.01,000.00,019.9,018.7,000.0,028.4,021.1,12.1,0002.5,0011.36,0009.02,0008.72
2023-10-29 23:51:00,SystemResetWarning,0838.8,5.01,000.00,019.9,018.7,000.0,028.4,021.1,12.1,0002.3,0011.34,0009.03,0008.74
2023-10-29 23:52:00,SystemResetWarning,0838.8,4.99,000.00,019.8,018.6,000.0,028.4,021.0,12.1,0002.2,0011.23,0009.03,0008.76
2023-10-29 23:53:00,SystemResetWarning,0838.8,4.99,000.00,019.8,018.6,000.0,028.4,021.0,12.0,0002.1,0010.91,0009.04,0008.78
2023-10-29 23:54:00,SystemResetWarning,0838.8,4.99,000.00,019.8,018.6,000.0,028.3,021.0,12.0,0001.9,0010.85,0009.03,0008.78
2023-10-29 23:55:00,SystemResetWarning,0838.8,5.02,000.00,019.8,018.9,000.0,028.3,021.3,12.0,0001.8,0010.81,0009.04,0008.78
2023-10-29 23:56:00,SystemResetWarning,0838.9,5.01,000.00,020.0,020.0,000.0,028.3,021.8,11.9,0001.7,0010.88,0009.05,0008.77
2023-10-29 23:57:00,SystemResetWarning,0838.9,5.00,000.00,020.1,020.8,000.0,028.3,022.1,11.7,0001.5,0010.91,0009.01,0008.75
2023-10-29 23:58:00,SystemResetWarning,0838.9,4.99,000.00,020.2,020.6,000.0,028.4,021.9,11.6,0001.0,0011.18,0008.98,0008.72
2023-10-29 23:59:00,SystemResetWarning,0838.9,5.00,000.00,020.2,020.3,000.0,028.4,021.7,11.7,0001.5,0011.21,0008.96,0008.72
